Location: Kott?ru
(16.6209°N, 80.6208°E)
Time: 06:41:28
(UTC+00:00)

AO-27 - Visible Passes

Search period start: 07 June 2023 00:00
Search period end: 17 June 2023 00:00
Orbit: 784 x 797 km, 98.8° (Epoch: 06 June)

Date Brightness Start Highest point End Pass type
(mag) Time Alt. Az. Time Alt. Az. Time Alt. Az.
07 Jun 8.0 15:01:25 36° SSW 15:03:23 62° WSW 15:08:31 10° NNW visible
08 Jun 7.7 14:31:40 30° SE 14:34:07 60° ENE 14:39:12 10° N visible
09 Jun 8.7 14:01:57 16° ESE 14:04:55 27° ENE 14:09:14 10° NNE visible
09 Jun 9.7 15:42:41 18° WSW 15:44:11 21° W 15:47:59 10° NW visible
10 Jun 9.5 13:33:47 10° E 13:35:49 12° ENE 13:37:50 10° NE visible
10 Jun 8.5 15:12:56 32° SSW 15:14:50 45° WSW 15:19:46 10° NNW visible
11 Jun 7.5 14:43:13 34° SSE 14:45:32 81° ENE 14:50:43 10° N visible
12 Jun 8.3 14:13:29 21° SE 14:16:19 36° ENE 14:21:00 10° N visible
12 Jun 10.0 15:54:13 14° WSW 15:55:39 15° W 15:58:35 10° WNW visible
13 Jun 9.3 13:43:57 10° ESE 13:47:10 17° ENE 13:50:22 10° NNE visible
13 Jun 9.0 15:24:29 26° SW 15:26:16 33° W 15:30:56 10° NW visible
14 Jun 7.7 14:54:45 35° S 14:56:58 76° WSW 15:02:08 10° NNW visible
15 Jun 7.9 14:25:01 25° SE 14:27:42 49° ENE 14:32:40 10° N visible
15 Jun 10.3 16:05:56 10° WSW 16:07:07 11° W 16:08:18 10° W visible
16 Jun 8.9 13:55:18 13° ESE 13:58:32 22° ENE 14:02:28 10° NNE visible
16 Jun 9.4 15:36:02 21° SW 15:37:44 25° W 15:41:55 10° NW visible
